This demonstration page uses our WeatherBlox Daily Observations layout. Learn more.

Left ArrowRight Arrow

Hourly Observations for November 7, 2015

Temp ( °F °C ) Dew Point ( °F °C ) Humidity (%) Winds ( mph kmh ) Pressure ( in mb ) Visibility ( mi km ) Precip ( " mm )
12:53 am 00:53 Clear 44 6.7 34 1.1 68 68 Calm 30.19 1022 10 16 0.00 0.00
1:53 am 01:53 Clear 43 6.1 33 0.6 68 68 Calm 30.19 1023 10 16 0.00 0.00
2:53 am 02:53 Clear 40 4.4 32 0 73 73 Calm 30.20 1023 10 16 0.00 0.00
3:53 am 03:53 Clear 40 4.4 32 0 73 73 Calm 30.19 1023 10 16 0.00 0.00
4:53 am 04:53 Clear 39 3.9 31 -0.6 73 73 Calm 30.20 1023 10 16 0.00 0.00
5:53 am 05:53 Clear 37 2.8 31 -0.6 79 79 Calm 30.21 1023 10 16 0.00 0.00
6:53 am 06:53 Sunny 37 3 30 -1 75 75 Calm N/A 2 3 0.00 0.00
7:53 am 07:53 Sunny 43 6.1 34 1.1 71 71 Calm 30.22 1023 10 16 0.00 0.00
8:53 am 08:53 Sunny 51 10.6 36 2.2 56 56 Calm 30.21 1023 10 16 0.00 0.00
9:53 am 09:53 Sunny 57 13.9 36 2.2 45 45 Calm 30.19 1022 10 16 0.00 0.00
10:53 am 10:53 Sunny 62 16.7 36 2.2 38 38 Calm 30.17 1022 10 16 0.00 0.00
11:53 am 11:53 Sunny 64 17.8 35 1.7 34 34 Calm 30.14 1021 10 16 0.00 0.00
12:53 pm 12:53 Sunny 66 18.9 35 1.7 32 32 Calm 30.09 1019 10 16 0.00 0.00
1:53 pm 13:53 Sunny 68 20 35 1.7 30 30 VRB 3 6 30.06 1018 10 16 0.00 0.00
2:53 pm 14:53 Sunny 69 20.6 34 1.1 27 27 SSW 3 6 30.04 1017 10 16 0.00 0.00
3:53 pm 15:53 Sunny 68 20 35 1.7 30 30 SE 3 6 30.02 1017 10 16 0.00 0.00
4:53 pm 16:53 Sunny 64 17.8 35 1.7 34 34 SSE 5 7 30.01 1016 10 16 0.00 0.00
5:53 pm 17:53 Clear 58 14.4 36 2.2 44 44 Calm 30.00 1016 10 16 0.00 0.00
6:53 pm 18:53 Clear 55 12.8 34 1.1 45 45 Calm 30.01 1016 7 11 0.00 0.00
7:53 pm 19:53 Clear 51 10.6 35 1.7 54 54 NW 3 6 30.01 1016 10 16 0.00 0.00
8:53 pm 20:53 Clear 51 10.6 35 1.7 54 54 Calm 30.01 1016 10 16 0.00 0.00
9:53 pm 21:53 Clear 51 10.6 36 2.2 56 56 Calm 30.01 1016 10 16 0.00 0.00
10:53 pm 22:53 Clear 50 10 36 2.2 59 59 Calm 30.01 1016 9 14 0.00 0.00
11:53 pm 23:53 Clear 50 10 36 2.2 59 59 N 5 7 30.01 1016 10 16 0.00 0.00

Powered by AerisWeather